This is the latest recevied weather packets stored in our database for station/object DG2MCM-11. If no packets are shown the sender has not sent any weather packets the latest 10 day(s).
| Time | Temp. | Humidity | Pressure | Rain* | Wind** | Luminosity | Snow |
|---|---|---|---|---|---|---|---|
| 1777780125 | 8.89° C | 76% | 1018.1 hPa | 0 mm | - | - | - |
| 1777779524 | 8.89° C | 76% | 1018.1 hPa | 0 mm | - | - | - |
| 1777777720 | 9.44° C | 75% | 1018 hPa | 0 mm | - | - | - |
| 1777775916 | 9.44° C | 74% | 1018.3 hPa | 0 mm | - | - | - |
| 1777775314 | 9.44° C | 75% | 1018.4 hPa | 0 mm | - | - | - |
| 1777772308 | 9.44° C | 78% | 1018.3 hPa | 0 mm | - | - | - |
| 1777771105 | 9.44° C | 79% | 1018.4 hPa | 0 mm | - | - | - |
| 1777770504 | 9.44° C | 78% | 1018.4 hPa | 0 mm | - | - | - |
| 1777769902 | 9.44° C | 76% | 1018.4 hPa | 0 mm | - | - | - |
| 1777769300 | 10° C | 74% | 1018.3 hPa | 0 mm | - | - | - |
| 1777768698 | 10° C | 75% | 1018.3 hPa | 0 mm | - | - | - |
| 1777768097 | 10° C | 74% | 1018.3 hPa | 0 mm | - | - | - |
| 1777767495 | 10.56° C | 73% | 1018.3 hPa | 0 mm | - | - | - |
| 1777763887 | 10.56° C | 74% | 1018.4 hPa | 0 mm | - | - | - |
| 1777763285 | 10.56° C | 75% | 1018.4 hPa | 0 mm | - | - | - |
| 1777762684 | 10.56° C | 73% | 1018.4 hPa | 0 mm | - | - | - |
| 1777760880 | 11.11° C | 74% | 1018.5 hPa | 0 mm | - | - | - |
| 1777760278 | 11.11° C | 74% | 1018.5 hPa | 0 mm | - | - | - |
| 1777759676 | 11.11° C | 74% | 1018.5 hPa | 0 mm | - | - | - |
| 1777759075 | 11.67° C | 73% | 1018.5 hPa | 0 mm | - | - | - |
| 1777757872 | 11.67° C | 72% | 1018.4 hPa | 0 mm | - | - | - |
| 1777756067 | 12.22° C | 69% | 1018.6 hPa | 0 mm | - | - | - |
| 1777755526 | 12.22° C | 69% | 1018.6 hPa | 0 mm | - | - | - |
| 1777753120 | 13.33° C | 66% | 1018.4 hPa | 0 mm | - | - | - |
| 1777751918 | 14.44° C | 64% | 1018.2 hPa | 0 mm | - | - | - |
* Rain latest hour (hover to see other rain measurements)
** Current wind speed in m/s (hover to see current wind gust speed)